TimeCDT,TemperatureF,Dew PointF,Humidity,Sea Level PressureIn,VisibilityMPH,Wind Direction,Wind SpeedMPH,Gust SpeedMPH,PrecipitationIn,Events,Conditions,WindDirDegrees,DateUTC
12:15 AM,39.2,32.0,75,30.05,10.0,NE,20.7,29.9,N/A,,Overcast,50,2014-03-16 05:15:00
12:35 AM,38.8,32.0,76,30.06,10.0,NE,17.3,31.1,N/A,,Overcast,40,2014-03-16 05:35:00
12:55 AM,38.3,30.7,74,30.06,10.0,NE,21.9,33.4,N/A,,Overcast,40,2014-03-16 05:55:00
1:15 AM,37.4,29.3,73,30.08,10.0,NE,18.4,31.1,N/A,,Overcast,40,2014-03-16 06:15:00
1:35 AM,36.5,27.5,70,30.08,10.0,NE,18.4,29.9,N/A,,Overcast,50,2014-03-16 06:35:00
1:55 AM,35.6,26.6,70,30.09,10.0,NE,20.7,28.8,N/A,,Mostly Cloudy,50,2014-03-16 06:55:00
2:15 AM,34.9,26.6,72,30.10,10.0,NE,19.6,28.8,N/A,,Scattered Clouds,50,2014-03-16 07:15:00
2:35 AM,34.7,26.6,72,30.09,10.0,NE,20.7,28.8,N/A,,Mostly Cloudy,50,2014-03-16 07:35:00
2:55 AM,34.3,26.6,73,30.09,10.0,NE,19.6,31.1,N/A,,Overcast,50,2014-03-16 07:55:00
3:15 AM,34.0,26.2,73,30.09,10.0,NE,18.4,31.1,N/A,,Overcast,50,2014-03-16 08:15:00
3:35 AM,33.6,26.6,75,30.08,10.0,NE,19.6,27.6,N/A,,Overcast,40,2014-03-16 08:35:00
3:55 AM,32.9,26.6,78,30.08,10.0,NE,18.4,28.8,N/A,,Overcast,40,2014-03-16 08:55:00
4:15 AM,32.5,26.4,78,30.09,10.0,NE,19.6,31.1,N/A,,Overcast,40,2014-03-16 09:15:00
4:35 AM,32.4,26.4,79,30.08,10.0,NE,19.6,26.5,N/A,,Overcast,50,2014-03-16 09:35:00
4:55 AM,32.4,26.1,78,30.08,10.0,NE,20.7,31.1,N/A,,Overcast,40,2014-03-16 09:55:00
5:15 AM,32.2,26.4,79,30.08,10.0,NE,23.0,32.2,N/A,,Overcast,40,2014-03-16 10:15:00
5:35 AM,32.0,26.6,80,30.08,10.0,NE,18.4,28.8,N/A,,Overcast,40,2014-03-16 10:35:00
5:55 AM,32.0,25.9,78,30.10,10.0,NE,18.4,28.8,N/A,,Overcast,40,2014-03-16 10:55:00
6:15 AM,32.0,25.2,76,30.10,10.0,NE,25.3,34.5,N/A,,Overcast,50,2014-03-16 11:15:00
6:35 AM,32.0,25.5,77,30.11,10.0,NE,19.6,28.8,N/A,,Overcast,40,2014-03-16 11:35:00
6:55 AM,32.0,25.0,75,30.11,10.0,NE,21.9,27.6,N/A,,Overcast,40,2014-03-16 11:55:00
7:15 AM,32.0,23.9,72,30.11,10.0,NNE,23.0,34.5,N/A,,Overcast,30,2014-03-16 12:15:00
7:35 AM,32.0,23.9,72,30.12,10.0,NE,17.3,29.9,N/A,,Overcast,40,2014-03-16 12:35:00
7:55 AM,31.8,24.8,75,30.13,10.0,NNE,17.3,33.4,N/A,,Overcast,30,2014-03-16 12:55:00
8:15 AM,31.1,23.7,74,30.14,10.0,NE,21.9,29.9,N/A,,Overcast,40,2014-03-16 13:15:00
8:35 AM,30.6,22.8,73,30.15,10.0,NE,15.0,34.5,N/A,,Overcast,40,2014-03-16 13:35:00
8:55 AM,30.2,22.1,72,30.16,10.0,NNE,19.6,27.6,N/A,,Overcast,30,2014-03-16 13:55:00
9:15 AM,30.0,20.3,67,30.16,10.0,NE,16.1,31.1,N/A,,Overcast,40,2014-03-16 14:15:00
9:35 AM,29.8,20.3,68,30.17,10.0,NE,15.0,23.0,N/A,,Overcast,40,2014-03-16 14:35:00
9:55 AM,29.8,19.9,67,30.18,10.0,NE,18.4,27.6,N/A,,Overcast,50,2014-03-16 14:55:00
10:15 AM,29.3,19.8,68,30.19,10.0,NNE,20.7,27.6,N/A,,Overcast,30,2014-03-16 15:15:00
10:35 AM,29.8,19.2,65,30.20,10.0,NE,17.3,29.9,N/A,,Overcast,50,2014-03-16 15:35:00
10:55 AM,29.3,19.2,66,30.20,10.0,NNE,18.4,26.5,N/A,,Overcast,30,2014-03-16 15:55:00
11:15 AM,28.8,19.8,69,30.21,10.0,NE,19.6,27.6,N/A,,Mostly Cloudy,40,2014-03-16 16:15:00
11:35 AM,28.6,20.1,71,30.21,10.0,NNE,16.1,27.6,N/A,,Mostly Cloudy,30,2014-03-16 16:35:00
11:55 AM,28.4,20.8,73,30.21,10.0,NNE,18.4,27.6,N/A,,Mostly Cloudy,30,2014-03-16 16:55:00
12:15 PM,28.0,19.6,71,30.21,10.0,NNE,19.6,28.8,N/A,,Overcast,30,2014-03-16 17:15:00
12:35 PM,28.6,20.1,71,30.20,10.0,NE,19.6,27.6,N/A,,Overcast,40,2014-03-16 17:35:00
12:55 PM,28.9,18.9,66,30.21,10.0,NNE,19.6,26.5,N/A,,Mostly Cloudy,20,2014-03-16 17:55:00
1:15 PM,28.8,17.6,63,30.20,10.0,NNE,19.6,26.5,N/A,,Overcast,20,2014-03-16 18:15:00
1:35 PM,28.0,19.0,69,30.20,7.0,NNE,17.3,28.8,N/A,,Overcast,30,2014-03-16 18:35:00
1:55 PM,28.6,18.5,66,30.19,7.0,NNE,23.0,31.1,N/A,,Overcast,30,2014-03-16 18:55:00
2:15 PM,28.8,18.3,65,30.19,7.0,NNE,15.0,27.6,N/A,,Overcast,30,2014-03-16 19:15:00
2:35 PM,29.7,16.5,58,30.18,10.0,NNE,20.7,26.5,N/A,,Scattered Clouds,30,2014-03-16 19:35:00
2:55 PM,30.4,14.2,51,30.16,10.0,NNE,19.6,27.6,N/A,,Scattered Clouds,20,2014-03-16 19:55:00
3:15 PM,31.5,14.0,49,30.16,10.0,NE,12.7,25.3,N/A,,Scattered Clouds,40,2014-03-16 20:15:00
3:35 PM,31.3,11.3,44,30.15,10.0,NNE,13.8,24.2,N/A,,Mostly Cloudy,30,2014-03-16 20:35:00
3:55 PM,31.3,11.8,45,30.15,10.0,NNE,17.3,23.0,N/A,,Overcast,30,2014-03-16 20:55:00
4:15 PM,31.1,13.3,48,30.14,10.0,North,16.1,24.2,N/A,,Mostly Cloudy,10,2014-03-16 21:15:00
4:35 PM,31.1,12.4,46,30.14,10.0,NNE,16.1,24.2,N/A,,Scattered Clouds,30,2014-03-16 21:35:00
4:55 PM,31.5,12.7,46,30.13,10.0,NNE,13.8,24.2,N/A,,Clear,20,2014-03-16 21:55:00
5:15 PM,31.1,12.0,45,30.13,10.0,NE,12.7,21.9,N/A,,Clear,40,2014-03-16 22:15:00
5:35 PM,32.0,12.2,44,30.13,10.0,NNE,15.0,23.0,N/A,,Clear,30,2014-03-16 22:35:00
5:55 PM,31.8,12.2,44,30.13,10.0,NE,17.3,24.2,N/A,,Clear,40,2014-03-16 22:55:00
6:15 PM,31.1,12.4,46,30.12,10.0,NNE,15.0,20.7,N/A,,Clear,30,2014-03-16 23:15:00
6:35 PM,30.6,13.3,49,30.13,10.0,NNE,12.7,-,N/A,,Clear,20,2014-03-16 23:35:00
6:55 PM,30.6,13.8,50,30.13,10.0,North,9.2,18.4,N/A,,Clear,10,2014-03-16 23:55:00
7:15 PM,29.8,13.8,51,30.14,10.0,NNE,11.5,-,N/A,,Clear,20,2014-03-17 00:15:00
7:35 PM,29.3,13.6,52,30.14,10.0,NNE,11.5,-,N/A,,Clear,20,2014-03-17 00:35:00
7:55 PM,29.1,13.3,52,30.14,10.0,NNE,12.7,17.3,N/A,,Clear,20,2014-03-17 00:55:00
8:15 PM,28.4,13.8,54,30.14,10.0,NNE,6.9,-,N/A,,Clear,30,2014-03-17 01:15:00
8:35 PM,28.0,14.5,57,30.14,10.0,NNE,6.9,-,N/A,,Clear,20,2014-03-17 01:35:00
8:55 PM,27.5,14.9,59,30.14,10.0,NNE,5.8,-,N/A,,Clear,20,2014-03-17 01:55:00
9:15 PM,26.6,16.7,66,30.14,10.0,North,9.2,-,N/A,,Clear,360,2014-03-17 02:15:00
9:35 PM,25.7,16.5,68,30.15,10.0,North,6.9,-,N/A,,Clear,360,2014-03-17 02:35:00
9:55 PM,25.3,16.2,68,30.14,10.0,NNE,4.6,-,N/A,,Clear,20,2014-03-17 02:55:00
10:15 PM,24.8,16.2,70,30.14,10.0,North,4.6,-,N/A,,Clear,10,2014-03-17 03:15:00
10:35 PM,23.9,16.3,73,30.14,10.0,North,5.8,-,N/A,,Clear,360,2014-03-17 03:35:00
10:55 PM,24.4,16.2,71,30.14,10.0,North,6.9,-,N/A,,Clear,360,2014-03-17 03:55:00
11:15 PM,23.9,15.8,71,30.14,10.0,North,6.9,-,N/A,,Clear,360,2014-03-17 04:15:00
11:35 PM,23.5,15.6,72,30.13,10.0,North,5.8,-,N/A,,Clear,10,2014-03-17 04:35:00
11:55 PM,23.4,16.3,75,30.13,10.0,North,8.1,-,N/A,,Clear,350,2014-03-17 04:55:00